Weather History for Rensselaer, IN

Change the Weather History Date:

Tuesday, October 18, 2011

  Actual Average (KVPZ) Record (KVPZ)
Temperature  
Mean Temperature 44 °F 52 °F  
Max Temperature 50 °F 62 °F 80 °F (2007)
Min Temperature 39 °F 42 °F 32 °F (1999)
Degree Days  
Heating Degree Days 20 13  
Month to date heating degree days 200  
Since 1 July heating degree days 330  
Cooling Degree Days 0 0  
Month to date cooling degree days 11  
Year to date cooling degree days 713  
Moisture  
Dew Point 38 °F    
Average Humidity 80    
Maximum Humidity 93    
Minimum Humidity 62    
Precipitation  
Precipitation 0.00 in 0.12 in 1.58 in (2007)
Month to date precipitation 1.89  
Year to date precipitation 30.64  
Sea Level Pressure  
Sea Level Pressure 29.82 in    
Wind  
Wind Speed 5 mph (SW)    
Max Wind Speed 9 mph    
Max Gust Speed -    
Visibility 10 miles    
Events      
T = Trace of Precipitation, MM = Missing Value Source: NWS Daily Summary

Daily Weather History Graph

Daily Weather History Graph

Search for Another Location

Airport:

Trip Planner

Search our weather history database for the weather conditions in past years. The results will help you decide how hot, cold, wet, or windy it might be!

Date:

Astronomy

Oct. 18, 2011 Rise Set
Actual Time 7:03 AM CDT 6:04 PM CDT
Civil Twilight 6:35 AM CDT 6:31 PM CDT
Nautical Twilight 6:03 AM CDT 7:03 PM CDT
Astronomical Twilight 5:31 AM CDT 7:35 PM CDT
Moon 10:43 PM CDT (10/18) 12:55 PM CDT (10/18)
Length of Visible Light 11h 56m
Length of Day
11h 00m
Waning Gibbous, 64% of the Moon is Illuminated
Oct 18
Waning Gibbous
Oct 19
Last Quarter
Oct 26
New
Nov 2
First Quarter
Nov 10
Full

Hourly Weather History & Observations

Time (CDT) Temp. Windchill Dew Point Humidity Pressure Visibility Wind Dir Wind Speed Gust Speed Precip Events Conditions
12:15 AM 46.4 °F 42.9 °F 33.8 °F 62% 29.86 in 10.0 mi WSW 6.9 mph - N/A   Clear
12:35 AM 46.4 °F 41.9 °F 33.8 °F 62% 29.86 in 10.0 mi WSW 9.2 mph - N/A   Clear
12:55 AM 46.4 °F 42.4 °F 33.8 °F 62% 29.86 in 10.0 mi WSW 8.1 mph - N/A   Clear
1:15 AM 44.6 °F 40.2 °F 33.8 °F 66% 29.85 in 10.0 mi WSW 8.1 mph - N/A   Clear
1:35 AM 44.6 °F 40.7 °F 35.6 °F 71% 29.85 in 10.0 mi WSW 6.9 mph - N/A   Clear
1:55 AM 42.8 °F 39.3 °F 35.6 °F 76% 29.85 in 10.0 mi SW 5.8 mph - N/A   Clear
2:15 AM 41.0 °F 37.1 °F 35.6 °F 81% 29.84 in 10.0 mi SW 5.8 mph - N/A   Clear
2:35 AM 41.0 °F 37.1 °F 35.6 °F 81% 29.83 in 10.0 mi SW 5.8 mph - N/A   Clear
2:55 AM 41.0 °F 36.4 °F 35.6 °F 81% 29.82 in 10.0 mi SW 6.9 mph - N/A   Clear
3:15 AM 41.0 °F 37.1 °F 35.6 °F 81% 29.83 in 10.0 mi WSW 5.8 mph - N/A   Clear
3:35 AM 41.0 °F 37.1 °F 35.6 °F 81% 29.82 in 10.0 mi WSW 5.8 mph - N/A   Clear
3:55 AM 41.0 °F 37.1 °F 37.4 °F 87% 29.82 in 10.0 mi WSW 5.8 mph - N/A   Clear
4:15 AM 41.0 °F 37.1 °F 37.4 °F 87% 29.82 in 10.0 mi WSW 5.8 mph - N/A   Clear
4:35 AM 41.0 °F 36.4 °F 37.4 °F 87% 29.83 in 10.0 mi SW 6.9 mph - N/A   Clear
4:55 AM 41.0 °F 38.0 °F 37.4 °F 87% 29.83 in 10.0 mi WSW 4.6 mph - N/A   Clear
5:15 AM 39.2 °F 35.0 °F 37.4 °F 93% 29.83 in 10.0 mi SW 5.8 mph - N/A   Clear
5:35 AM 41.0 °F 37.1 °F 37.4 °F 87% 29.83 in 10.0 mi SW 5.8 mph - N/A   Clear
5:55 AM 41.0 °F 37.1 °F 37.4 °F 87% 29.83 in 10.0 mi SW 5.8 mph - N/A   Clear
6:15 AM 41.0 °F 37.1 °F 37.4 °F 87% 29.83 in 10.0 mi SW 5.8 mph - N/A   Clear
6:35 AM 41.0 °F 37.1 °F 39.2 °F 93% 29.83 in 10.0 mi SW 5.8 mph - N/A   Clear
6:55 AM 41.0 °F 38.0 °F 39.2 °F 93% 29.82 in 10.0 mi SW 4.6 mph - N/A   Clear
7:15 AM 41.0 °F 39.0 °F 39.2 °F 93% 29.82 in 10.0 mi SW 3.5 mph - N/A   Clear
7:35 AM 41.0 °F - 39.2 °F 93% 29.82 in 10.0 mi Calm Calm - N/A   Clear
7:55 AM 41.0 °F 38.0 °F 39.2 °F 93% 29.83 in 10.0 mi SSW 4.6 mph - N/A   Clear
8:15 AM 41.0 °F 38.0 °F 39.2 °F 93% 29.83 in 10.0 mi SW 4.6 mph - N/A   Clear
8:35 AM 42.8 °F 41.1 °F 41.0 °F 93% 29.83 in 10.0 mi WSW 3.5 mph - N/A   Clear
8:55 AM 42.8 °F 40.1 °F 41.0 °F 93% 29.84 in 10.0 mi WSW 4.6 mph - N/A   Clear
9:15 AM 42.8 °F 39.3 °F 41.0 °F 93% 29.84 in 10.0 mi West 5.8 mph - N/A   Clear
9:35 AM 42.8 °F 41.1 °F 41.0 °F 93% 29.84 in 10.0 mi West 3.5 mph - N/A   Clear
10:15 AM 44.6 °F - 39.2 °F 81% 29.83 in 10.0 mi Calm Calm - N/A   Clear
10:35 AM 44.6 °F - 37.4 °F 76% 29.83 in 10.0 mi Calm Calm - N/A   Scattered Clouds
10:55 AM 44.6 °F - 37.4 °F 76% 29.83 in 10.0 mi Calm Calm - N/A   Mostly Cloudy
11:15 AM 46.4 °F - 37.4 °F 71% 29.83 in 10.0 mi Calm Calm - N/A   Overcast
11:35 AM 46.4 °F - 37.4 °F 71% 29.82 in 10.0 mi Calm Calm - N/A   Overcast
12:15 PM 46.4 °F 45.2 °F 37.4 °F 71% 29.83 in 10.0 mi SSE 3.5 mph - N/A   Overcast
12:35 PM 46.4 °F 44.3 °F 39.2 °F 76% 29.83 in 10.0 mi SSE 4.6 mph - N/A   Overcast
1:15 PM 46.4 °F - 37.4 °F 71% 29.80 in 10.0 mi Calm Calm - N/A   Overcast
1:35 PM 46.4 °F - 37.4 °F 71% 29.80 in 10.0 mi Calm Calm - N/A   Overcast
1:55 PM 46.4 °F - 37.4 °F 71% 29.81 in 10.0 mi Calm Calm - N/A   Overcast
2:15 PM 48.2 °F - 37.4 °F 66% 29.80 in 10.0 mi Calm Calm - N/A   Overcast
2:35 PM 48.2 °F - 37.4 °F 66% 29.80 in 10.0 mi Calm Calm - N/A   Overcast
3:15 PM 48.2 °F - 37.4 °F 66% 29.80 in 10.0 mi Calm Calm - N/A   Overcast
3:35 PM 50.0 °F - 37.4 °F 62% 29.81 in 10.0 mi Calm Calm - N/A   Overcast
3:55 PM 50.0 °F - 37.4 °F 62% 29.81 in 10.0 mi Calm Calm - N/A   Overcast
4:15 PM 50.0 °F - 37.4 °F 62% 29.82 in 10.0 mi Calm Calm - N/A   Overcast
4:35 PM 48.2 °F - 37.4 °F 66% 29.81 in 10.0 mi Calm Calm - N/A   Overcast
4:55 PM 48.2 °F - 39.2 °F 71% 29.82 in 10.0 mi SSE 3.5 mph - N/A   Overcast
5:15 PM 48.2 °F - 41.0 °F 76% 29.81 in 10.0 mi SSE 5.8 mph - N/A   Overcast
5:35 PM 46.4 °F - 39.2 °F 76% 29.81 in 10.0 mi Calm Calm - N/A   Overcast
5:55 PM 46.4 °F 45.2 °F 39.2 °F 76% 29.81 in 10.0 mi SSE 3.5 mph - N/A   Overcast
6:15 PM 46.4 °F - 39.2 °F 76% 29.81 in 10.0 mi Calm Calm - N/A   Overcast
6:35 PM 46.4 °F 44.3 °F 41.0 °F 81% 29.81 in 10.0 mi SE 4.6 mph - N/A   Overcast
6:55 PM 46.4 °F 45.2 °F 41.0 °F 81% 29.81 in 10.0 mi SSE 3.5 mph - N/A   Overcast
7:15 PM 46.4 °F - 41.0 °F 81% 29.81 in 10.0 mi Calm Calm - N/A   Overcast
7:35 PM 44.6 °F - 41.0 °F 87% 29.81 in 10.0 mi Calm Calm - N/A   Overcast
7:55 PM 44.6 °F - 41.0 °F 87% 29.81 in 10.0 mi Calm Calm - N/A   Overcast
8:15 PM 46.4 °F - 41.0 °F 81% 29.81 in 10.0 mi Calm Calm - N/A   Overcast
8:35 PM 44.6 °F - 41.0 °F 87% 29.81 in 10.0 mi Calm Calm - N/A   Drizzle
8:55 PM 44.6 °F - 42.8 °F 93% 29.80 in 10.0 mi Calm Calm - N/A   Drizzle
9:15 PM 44.6 °F - 42.8 °F 93% 29.80 in 10.0 mi Calm Calm - N/A   Overcast
9:35 PM 44.6 °F - 41.0 °F 87% 29.80 in 10.0 mi Calm Calm - N/A   Overcast
9:55 PM 44.6 °F - 42.8 °F 93% 29.80 in 10.0 mi Calm Calm - N/A   Drizzle
10:15 PM 44.6 °F - 42.8 °F 93% 29.80 in 10.0 mi Calm Calm - N/A   Drizzle
10:35 PM 44.6 °F - 42.8 °F 93% 29.80 in 5.0 mi Calm Calm - N/A   Drizzle
10:55 PM 44.6 °F 43.1 °F 42.8 °F 93% 29.80 in 4.0 mi NNE 3.5 mph - N/A Rain Light Rain
11:15 PM 42.8 °F 40.1 °F 42.8 °F 100% 29.78 in 7.0 mi North 4.6 mph - 0.01 in Rain Light Rain
11:35 PM 42.8 °F - 42.8 °F 100% 29.78 in 7.0 mi Calm Calm - 0.01 in Rain Light Rain
11:55 PM 42.8 °F - 42.8 °F 100% 29.76 in 7.0 mi Calm Calm - 0.02 in Rain Light Rain